This is the latest recevied weather packets stored in our database for station/object KI5NXU. If no packets are shown the sender has not sent any weather packets the latest 10 day(s).
| Time | Temp. | Humidity | Pressure | Rain* | Wind** | Luminosity | Snow |
|---|---|---|---|---|---|---|---|
| 1787866280 | 36.67° C | 41% | 1014.5 hPa | 0 mm | - | 494 W/m² | - |
| 1787865976 | 36.67° C | 42% | 1014.3 hPa | 0 mm | - | 216 W/m² | - |
| 1787865672 | 36.67° C | 42% | 1014.6 hPa | 0 mm | - | 495 W/m² | - |
| 1787865371 | 37.22° C | 40% | 1014.7 hPa | 0 mm | - | 340 W/m² | - |
| 1787865067 | 36.67° C | 44% | 1014.6 hPa | 0 mm | - | 667 W/m² | - |
| 1787864762 | 36.67° C | 45% | 1014.8 hPa | 0 mm | - | 649 W/m² | - |
| 1787864461 | 36.67° C | 44% | 1014.7 hPa | 0 mm | - | 602 W/m² | - |
| 1787864156 | 36.67° C | 44% | 1014.8 hPa | 0 mm | - | 615 W/m² | - |
| 1787863855 | 36.67° C | 44% | 1015.1 hPa | 0 mm | - | 373 W/m² | - |
| 1787863554 | 37.22° C | 43% | 1015.1 hPa | 0 mm | - | 448 W/m² | - |
| 1787863249 | 36.67° C | 42% | 1015.4 hPa | 0 mm | - | 734 W/m² | - |
| 1787862945 | 36.67° C | 44% | 1015.5 hPa | 0 mm | - | 293 W/m² | - |
| 1787862640 | 36.67° C | 44% | 1015.5 hPa | 0 mm | - | 358 W/m² | - |
| 1787862335 | 36.67° C | 46% | 1015.5 hPa | 0 mm | - | 409 W/m² | - |
| 1787862031 | 36.67° C | 44% | 1015.5 hPa | 0 mm | - | 701 W/m² | - |
| 1787861730 | 36.11° C | 46% | 1015.9 hPa | 0 mm | - | 472 W/m² | - |
| 1787861428 | 36.67° C | 46% | 1016 hPa | 0 mm | - | 406 W/m² | - |
| 1787861123 | 35° C | 48% | 1015.9 hPa | 0 mm | - | 310 W/m² | - |
| 1787860822 | 35° C | 48% | 1016.1 hPa | 0 mm | - | 282 W/m² | - |
| 1787860517 | 35° C | 48% | 1015.9 hPa | 0 mm | - | 293 W/m² | - |
| 1787860213 | 35.56° C | 48% | 1016.2 hPa | 0 mm | - | 415 W/m² | - |
| 1787859908 | 35.56° C | 47% | 1016 hPa | 0 mm | - | 344 W/m² | - |
| 1787859603 | 36.11° C | 48% | 1016.3 hPa | 0 mm | - | 498 W/m² | - |
| 1787859302 | 35.56° C | 49% | 1016.1 hPa | 0 mm | - | 405 W/m² | - |
| 1787858999 | 35° C | 50% | 1016.1 hPa | 0 mm | - | 633 W/m² | - |
* Rain latest hour (hover to see other rain measurements)
** Current wind speed in m/s (hover to see current wind gust speed)